Location: Chevoux
(46.3801°N, 4.9476°E)
Time: 03:31:14
(UTC+00:00)

ISS - Pass Details

Date: 06 December 2021
Orbit: 413 x 422 km, 51.6° (Epoch: 22 January)

Event Time Altitude Azimuth Distance (km) Brightness Sun altitude
Rises 18:28:47 0° 286° (WNW) 2,380 1.1 -25.8°
Reaches altitude 10° 18:31:31 10° 263° (W) 1,508 0.1 -26.3°
Maximum altitude 18:33:33 15° 226° (SW) 1,229 -0.8 -26.6°
Enters shadow 18:34:12 14° 212° (SSW) 1,258 -1.0 -26.8°
